| time (UTC) | temp C | wind direction | speed KPH | gust KPH | rain 1hr cm | rain 24hr cm | rain mn cm | humidity % | barometer mb |
| 20260510100008 | 8 | 229 | 0.0 | 0.0 | 0.00 | 0.00 | 0.00 | 23 | 1004.1 |
| 20260510094507 | 8 | 229 | 0.0 | 0.0 | 0.00 | 0.00 | 0.00 | 24 | 1004.2 |
| 20260510093008 | 8 | 229 | 0.0 | 0.0 | 0.00 | 0.00 | 0.00 | 25 | 1004.2 |
| 20260510091505 | 8 | 229 | 0.0 | 0.0 | 0.00 | 0.00 | 0.00 | 24 | 1004.2 |
| 20260510090005 | 8 | 229 | 0.0 | 0.0 | 0.00 | 0.00 | 0.00 | 24 | 1004.2 |
| 20260510084507 | 8 | 229 | 0.0 | 0.0 | 0.00 | 0.00 | 0.00 | 25 | 1004.2 |
| 20260510083003 | 8 | 229 | 0.0 | 0.0 | 0.00 | 0.00 | 0.00 | 26 | 1004.2 |
| 20260510081502 | 8 | 229 | 0.0 | 0.0 | 0.00 | 0.00 | 0.00 | 27 | 1003.9 |
| 20260510080117 | 8 | 229 | 0.0 | 0.0 | 0.00 | 0.00 | 0.00 | 27 | 1003.9 |
| 20260510074618 | 8 | 229 | 0.0 | 0.0 | 0.00 | 0.00 | 0.00 | 27 | 1004.0 |
| 20260510073051 | 8 | 229 | 0.0 | 0.0 | 0.00 | 0.00 | 0.00 | 26 | 1004.0 |
| 20260510071556 | 8 | 229 | 0.0 | 0.0 | 0.00 | 0.00 | 0.00 | 27 | 1004.1 |
| 20260510070043 | 9 | 229 | 0.0 | 0.0 | 0.00 | 0.00 | 0.00 | 25 | 1004.6 |
| 20260510064552 | 9 | 229 | 0.0 | 0.0 | 0.00 | 0.00 | 0.00 | 20 | 1004.6 |
| 20260510063034 | 9 | 229 | 0.0 | 0.0 | 0.00 | 0.00 | 0.00 | 19 | 1004.7 |
| 20260510061529 | 9 | 229 | 0.0 | 0.0 | 0.00 | 0.00 | 0.00 | 16 | 1004.7 |
| 20260510060030 | 10 | 229 | 0.0 | 0.0 | 0.00 | 0.00 | 0.00 | 16 | 1005.1 |
| 20260510054525 | 10 | 229 | 0.0 | 0.0 | 0.00 | 0.00 | 0.00 | 17 | 1004.7 |
| 20260510053016 | 10 | 229 | 0.0 | 0.0 | 0.00 | 0.00 | 0.00 | 16 | 1004.7 |
| 20260510051516 | 10 | 229 | 0.0 | 0.0 | 0.00 | 0.00 | 0.00 | 16 | 1004.7 |
| 20260510050008 | 11 | 229 | 0.0 | 0.0 | 0.00 | 0.00 | 0.00 | 16 | 1004.6 |
| 20260510044503 | 11 | 229 | 0.0 | 0.0 | 0.00 | 0.00 | 0.00 | 16 | 1004.6 |
| 20260510043105 | 12 | 229 | 0.0 | 0.0 | 0.00 | 0.00 | 0.00 | 15 | 1004.6 |
| 20260510041609 | 12 | 229 | 0.0 | 0.0 | 0.00 | 0.00 | 0.00 | 15 | 1003.9 |
| 20260510040051 | 12 | 229 | 0.0 | 0.0 | 0.00 | 0.00 | 0.00 | 14 | 1004.1 |
| 20260510034547 | 13 | 229 | 0.0 | 0.0 | 0.00 | 0.00 | 0.00 | 15 | 1003.6 |
| 20260510033041 | 14 | 229 | 0.0 | 0.0 | 0.00 | 0.00 | 0.00 | 14 | 1003.5 |
| 20260510031537 | 15 | 229 | 0.0 | 0.0 | 0.00 | 0.00 | 0.00 | 14 | 1003.4 |
| 20260510030033 | 15 | 229 | 0.0 | 0.0 | 0.00 | 0.00 | 0.00 | 14 | 1004.7 |
| 20260510024528 | 16 | 229 | 0.0 | 0.0 | 0.00 | 0.00 | 0.00 | 15 | 1003.8 |
| 20260510023024 | 16 | 229 | 0.0 | 0.0 | 0.00 | 0.00 | 0.00 | 15 | 1003.9 |
| 20260510021520 | 17 | 229 | 0.0 | 0.0 | 0.00 | 0.00 | 0.00 | 16 | 1003.8 |
| 20260510020016 | 17 | 229 | 0.0 | 0.0 | 0.00 | 0.00 | 0.00 | 18 | 1005.0 |
| 20260510014520 | 18 | 193 | 0.0 | 0.0 | 0.00 | 0.00 | 0.00 | 17 | 1005.1 |
| 20260510013006 | 18 | 193 | 0.0 | 0.0 | 0.00 | 0.00 | 0.00 | 17 | 1005.1 |
| 20260510011503 | 19 | 193 | 1.6 | 0.0 | 0.00 | 0.00 | 0.00 | 18 | 1004.5 |
| 20260510010112 | 21 | 128 | 1.6 | 0.0 | 0.00 | 0.00 | 0.00 | 17 | 1004.1 |
| 20260510004600 | 21 | 186 | 1.6 | 0.0 | 0.00 | 0.00 | 0.00 | 17 | 1004.0 |
| 20260510003050 | 21 | 232 | 3.2 | 0.0 | 0.00 | 0.00 | 0.00 | 15 | 1004.0 |
| 20260510001545 | 22 | 198 | 1.6 | 0.0 | 0.00 | 0.00 | 0.00 | 15 | 1003.5 |
| 20260510000044 | 22 | 209 | 1.6 | 0.0 | 0.00 | 0.00 | 0.00 | 18 | 1003.4 |
| 20260509234556 | 21 | 155 | 3.2 | 0.0 | 0.00 | 0.00 | 0.00 | 17 | 1004.1 |
| 20260509233033 | 21 | 205 | 4.8 | 0.0 | 0.00 | 0.00 | 0.00 | 17 | 1004.2 |
| 20260509231532 | 22 | 199 | 3.2 | 0.0 | 0.00 | 0.00 | 0.00 | 17 | 1003.6 |
| 20260509230027 | 22 | 198 | 3.2 | 0.0 | 0.00 | 0.00 | 0.00 | 13 | 1003.9 |
| 20260509224519 | 22 | 120 | 3.2 | 0.0 | 0.00 | 0.00 | 0.00 | 15 | 1004.0 |
| 20260509223016 | 22 | 155 | 1.6 | 0.0 | 0.00 | 0.00 | 0.00 | 10 | 1004.4 |
| 20260509221525 | 22 | 136 | 3.2 | 0.0 | 0.00 | 0.00 | 0.00 | 10 | 1004.4 |
| 20260509220007 | 21 | 200 | 3.2 | 0.0 | 0.00 | 0.00 | 0.00 | 9 | 1004.5 |
| 20260509214502 | 22 | 213 | 1.6 | 0.0 | 0.00 | 0.00 | 0.00 | 7 | 1004.7 |
| 20260509213058 | 22 | 113 | 1.6 | 0.0 | 0.00 | 0.00 | 0.00 | 6 | 1004.5 |
| 20260509211553 | 22 | 192 | 1.6 | 0.0 | 0.00 | 0.00 | 0.00 | 7 | 1005.1 |
| 20260509210057 | 22 | 131 | 1.6 | 0.0 | 0.00 | 0.00 | 0.00 | 7 | 1004.6 |
| 20260509204545 | 22 | 176 | 1.6 | 0.0 | 0.00 | 0.00 | 0.00 | 7 | 1004.7 |
| 20260509203045 | 22 | 127 | 3.2 | 0.0 | 0.00 | 0.00 | 0.00 | 5 | 1004.7 |
| 20260509201537 | 22 | 185 | 1.6 | 0.0 | 0.00 | 0.00 | 0.00 | 7 | 1004.7 |
| 20260509200037 | 22 | 144 | 1.6 | 0.0 | 0.00 | 0.00 | 0.00 | 11 | 1004.7 |
| 20260509194531 | 22 | 232 | 1.6 | 0.0 | 0.00 | 0.00 | 0.00 | 12 | 1004.7 |
| 20260509193029 | 21 | 158 | 1.6 | 0.0 | 0.00 | 0.00 | 0.00 | 10 | 1005.4 |
| 20260509191527 | 21 | 244 | 3.2 | 0.0 | 0.00 | 0.00 | 0.00 | 9 | 1005.6 |
| 20260509190040 | 21 | 230 | 3.2 | 0.0 | 0.00 | 0.00 | 0.00 | 10 | 1005.1 |
| 20260509184533 | 21 | 171 | 1.6 | 0.0 | 0.00 | 0.00 | 0.00 | 9 | 1005.1 |
| 20260509183028 | 20 | 210 | 1.6 | 0.0 | 0.00 | 0.00 | 0.00 | 9 | 1005.5 |
| 20260509181521 | 20 | 138 | 1.6 | 0.0 | 0.00 | 0.00 | 0.00 | 9 | 1005.5 |
| 20260509180019 | 20 | 130 | 1.6 | 0.0 | 0.00 | 0.00 | 0.00 | 10 | 1005.0 |
| 20260509174523 | 20 | 240 | 1.6 | 0.0 | 0.00 | 0.00 | 0.00 | 9 | 1005.4 |
| 20260509173016 | 19 | 240 | 1.6 | 0.0 | 0.00 | 0.00 | 0.00 | 9 | 1005.5 |
| 20260509171513 | 19 | 212 | 1.6 | 0.0 | 0.00 | 0.00 | 0.00 | 10 | 1005.3 |
| 20260509170023 | 18 | 128 | 0.0 | 0.0 | 0.00 | 0.00 | 0.00 | 11 | 1005.1 |
| 20260509164510 | 18 | 121 | 1.6 | 0.0 | 0.00 | 0.00 | 0.00 | 11 | 1005.1 |
| 20260509163007 | 18 | 165 | 0.0 | 0.0 | 0.00 | 0.00 | 0.00 | 12 | 1005.0 |
| 20260509161504 | 18 | 219 | 1.6 | 0.0 | 0.00 | 0.00 | 0.00 | 12 | 1005.4 |
| 20260509160100 | 17 | 185 | 0.0 | 0.0 | 0.00 | 0.00 | 0.00 | 13 | 1005.0 |
| 20260509154557 | 16 | 179 | 0.0 | 0.0 | 0.00 | 0.00 | 0.00 | 13 | 1005.4 |
| 20260509153054 | 16 | 141 | 0.0 | 0.0 | 0.00 | 0.00 | 0.00 | 15 | 1005.8 |
| 20260509151552 | 15 | 213 | 0.0 | 0.0 | 0.00 | 0.00 | 0.00 | 18 | 1006.4 |
| 20260509150045 | 13 | 213 | 0.0 | 0.0 | 0.00 | 0.00 | 0.00 | 21 | 1006.2 |
| 20260509144547 | 11 | 213 | 0.0 | 0.0 | 0.00 | 0.00 | 0.00 | 24 | 1006.7 |
| 20260509143037 | 9 | 213 | 0.0 | 0.0 | 0.00 | 0.00 | 0.00 | 27 | 1007.5 |
| 20260509141537 | 8 | 213 | 0.0 | 0.0 | 0.00 | 0.00 | 0.00 | 30 | 1007.3 |
| 20260509140036 | 8 | 213 | 0.0 | 0.0 | 0.00 | 0.00 | 0.00 | 29 | 1006.8 |
| 20260509134538 | 7 | 213 | 0.0 | 0.0 | 0.00 | 0.00 | 0.00 | 28 | 1006.8 |
| 20260509133034 | 7 | 213 | 0.0 | 0.0 | 0.00 | 0.00 | 0.00 | 25 | 1006.8 |
| 20260509131548 | 7 | 213 | 0.0 | 0.0 | 0.00 | 0.00 | 0.00 | 24 | 1006.7 |
| 20260509130042 | 7 | 213 | 0.0 | 0.0 | 0.00 | 0.00 | 0.00 | 23 | 1005.7 |
| 20260509124531 | 7 | 213 | 0.0 | 0.0 | 0.00 | 0.00 | 0.00 | 23 | 1005.6 |
| 20260509123029 | 7 | 213 | 0.0 | 0.0 | 0.00 | 0.00 | 0.00 | 22 | 1005.6 |
| 20260509121524 | 7 | 213 | 0.0 | 0.0 | 0.00 | 0.00 | 0.00 | 21 | 1005.6 |
| 20260509120023 | 7 | 213 | 0.0 | 0.0 | 0.00 | 0.00 | 0.00 | 20 | 1005.6 |
| 20260509114522 | 7 | 213 | 0.0 | 0.0 | 0.00 | 0.00 | 0.00 | 20 | 1005.2 |
| 20260509113021 | 7 | 213 | 0.0 | 0.0 | 0.00 | 0.00 | 0.00 | 20 | 1005.3 |
| 20260509111520 | 7 | 213 | 0.0 | 0.0 | 0.00 | 0.00 | 0.00 | 20 | 1005.4 |
| 20260509110024 | 7 | 213 | 0.0 | 0.0 | 0.00 | 0.00 | 0.00 | 19 | 1004.8 |
| 20260509104518 | 7 | 213 | 0.0 | 0.0 | 0.00 | 0.00 | 0.00 | 19 | 1004.9 |
| 20260509103020 | 7 | 213 | 0.0 | 0.0 | 0.00 | 0.00 | 0.00 | 18 | 1005.0 |
| 20260509101521 | 7 | 213 | 0.0 | 0.0 | 0.00 | 0.00 | 0.00 | 18 | 1005.0 |